Preview of NWS' New Version of Forecast
This preview is not operational and should not be used for support decisions.

Regional Weather Roundup (RWR)

Issued by National Weather Service (NWS)

                            
000
ASUS46 KSEW 162010
RWRWA 

WASHINGTON REGIONAL WEATHER ROUNDUP
NATIONAL WEATHER SERVICE SEATTLE WA
100 PM PDT TUE JUL 16 2019

NOTE:"FAIR" INDICATES FEW OR NO CLOUDS BELOW 12,000 FEET WITH NO 
SIGNIFICANT WEATHER AND/OR OBSTRUCTIONS TO VISIBILITY.

WAZ507-509-555>559-162100-
SEATTLE, TACOMA, EVERETT, AND VICINITY
  
CITY           SKY/WX    TMP DP  RH WIND       PRES   REMARKS
EVERETT        MOSUNNY   72  56  57 VRB5      30.03F                  
BOEING FIELD   PTSUNNY   74  56  53 CALM      30.01F                  
RENTON         CLOUDY    73  58  59 W6        30.01F                  
SEATAC AIRPORT PTSUNNY   73  58  59 VRB6      30.03F                  
JBLM-MCCHORD   CLOUDY    73  63  70 W5        30.02F                  
PUYALLUP       CLOUDY    72  61  68 VRB3      30.03F                  
BREMERTON      MOSUNNY   70  58  65 VRB6      30.02F                  
JBLM-FT LEWIS  NOT AVBL                                               
TACOMA NARROWS PTSUNNY   72  58  61 SW7       30.02F                  
$$
 
WAZ001-503-506-510-514-515-162100-
NORTH INTERIOR
  
CITY           SKY/WX    TMP DP  RH WIND       PRES   REMARKS
BELLINGHAM     SUNNY     71  55  56 S10       30.00F                  
FRIDAY HARBOR  SUNNY     62  55  77 SE8       30.03F                  
EASTSOUND      SUNNY     70  57  64 S10       30.00F                  
PORT ANGELES   MOSUNNY   65  57  75 N7        30.04S                  
EDIZ HOOK      MOCLDY    61  56  83 NW10      30.03S                  
PORT TOWNSEND  FAIR      72  59  64 CALM      30.00F                  
NAS WHIDBEY    PTSUNNY   66  55  67 W7        30.06F                  
ARLINGTON      PTSUNNY   73  58  59 NW8       30.01F                  
BURLINGTON     SUNNY     79  59  50 SW7       30.01F                  
$$
 
WAZ020-022-039-040-504-511-512-162100-
SOUTHWEST INTERIOR
  
CITY           SKY/WX    TMP DP  RH WIND       PRES   REMARKS
SHELTON        MOSUNNY   74  56  53 VRB6      29.99F                  
OLYMPIA        PTSUNNY   70  58  65 NW6       30.02F                  
CHEHALIS       DRIZZLE   68  64  88 CALM      30.02F                  
KELSO          MOSUNNY   78  60  53 S6        30.02F                  
VANCOUVER      SUNNY     75  58  55 VRB6      30.01F                  
SCAPPOOSE, OR  PTSUNNY   74  59  59 E8        30.00F                  
PORTLAND, OR   MOSUNNY   75  57  53 N5        30.02F                  
$$
 
WAZ021-516-517-162100-
WASHINGTON COAST
  
CITY           SKY/WX    TMP DP  RH WIND       PRES   REMARKS
FORKS          CLOUDY    69  57  65 CALM      30.02F                  
HOQUIAM        SUNNY     71  60  68 W13       30.03F                  
ASTORIA, OR    CLOUDY    68  61  78 W8        30.04S                  
$$
 
WAZ019-023-024-040-567>569-162100-
CASCADE MOUNTAINS AND COLUMBIA GORGE
  
CITY           SKY/WX    TMP DP  RH WIND       PRES   REMARKS
STAMPEDE PASS  PTSUNNY   61  51  70 VRB3      30.08F                  
TROUTDALE, OR  MOSUNNY   76  58  53 W6        30.01F                  
HOOD RIVER, OR MOCLDY    77  50  38 NW14G23   29.99S                  
THE DALLES, OR MOSUNNY   79  52  38 NW18      29.94F                  
$$

WAZ026-027-041>044-520-521-162100-
EAST SLOPES
  
CITY           SKY/WX    TMP DP  RH WIND       PRES   REMARKS
OMAK           MOSUNNY   78  48  34 VRB3      29.93F                  
WENATCHEE      SUNNY     76  48  37 SW17      29.92F                  
ELLENSBURG     MOSUNNY   82  46  28 W10       29.95F                  
YAKIMA         SUNNY     79  49  34 VRB5      29.94F                  
SUNNYSIDE ARPT CLEAR     79  51  37 SE7       29.94F                  
YAKIMA TC      FAIR      80  45  29 CALM      29.92F                  
$$

WAZ028-034-035-162100-
COLUMBIA BASIN
  
CITY           SKY/WX    TMP DP  RH WIND       PRES   REMARKS
EPHRATA        CLOUDY    77  50  38 W5        29.92F                  
MOSES LAKE     MOSUNNY   79  50  36 SW9       29.93F                  
PASCO          SUNNY     84  49  29 S8        29.92F                  
RICHLAND ARPT  CLEAR     84  50  30 SE10      29.91F                  
HERMISTON, OR  SUNNY     83  53  35 W15G21    29.92F                  
$$

WAZ036>038-162100-
NORTHEAST WASHINGTON
  
CITY           SKY/WX    TMP DP  RH WIND       PRES   REMARKS
SPOKANE GEIGER CLOUDY    69  54  58 VRB3      29.99F                  
SPOKANE FELTS  PTSUNNY   69  57  65 N3        29.99F                  
FAIRCHILD AFB  PTSUNNY   71  54  55 SE8       29.98F                  
COEURDALENE,ID PTSUNNY   66  55  67 S6        30.01F                  
DEER PARK      PTSUNNY   69  54  58 S9        30.00F                  
$$

WAZ029>033-162100-
SOUTHEAST WASHINGTON
  
CITY           SKY/WX    TMP DP  RH WIND       PRES   REMARKS
PULLMAN        PTSUNNY   71  51  49 VRB5      30.01F                  
LEWISTON, ID   CLOUDY    79  50  36 W9        29.94F                  
WALLA WALLA    MOSUNNY   80  49  33 SW12G20   29.95F                  
PENDLETON, OR  MOSUNNY   79  51  37 W12       29.95F                  
$$